EDW287L EGHQ-LSZH

Flight info

Callsign EDW287L
Flight time 1h 25m
Altitude 37000
Route LND DCT LIZAD DCT JSY DCT ARSUK DCT RESMI UN491 POGZI DCT GELTA DCT MANAG DCT PEVIT DCT BLM
Aircraft A320/M-SDE2E3FGHIJ1RWXY/LB1

Departure

Time 2026-04-26 15:54
Airport Cornwall Airport Newquay (EGHQ)

Arrival

Time 2026-04-26 17:19
Airport Zürich Airport (LSZH)
Time Latitude Longitude Altitude Speed Heading
2026-04-26 15:05 50.44634 -5.00356 328 ft 0 kts 122°
2026-04-26 15:43 50.44637 -5.00363 324 ft 3 kts 122°
2026-04-26 15:43 50.44647 -5.00387 324 ft 3 kts 122°
2026-04-26 15:43 50.44657 -5.00416 324 ft 2 kts 97°
2026-04-26 15:44 50.44655 -5.00442 322 ft 3 kts 48°
2026-04-26 15:44 50.44626 -5.00455 324 ft 2 kts 317°
2026-04-26 15:44 50.44616 -5.00435 323 ft 2 kts 303°
2026-04-26 15:45 50.44612 -5.00425 323 ft 0 kts 303°
2026-04-26 15:47 50.44615 -5.00431 323 ft 1 kts 303°
2026-04-26 15:47 50.44624 -5.00453 322 ft 4 kts 303°
2026-04-26 15:48 50.44646 -5.00508 323 ft 7 kts 301°
2026-04-26 15:48 50.44676 -5.00590 321 ft 10 kts 300°
2026-04-26 15:48 50.44717 -5.00701 320 ft 13 kts 300°
2026-04-26 15:48 50.44768 -5.00835 317 ft 14 kts 301°
2026-04-26 15:49 50.44806 -5.00953 314 ft 12 kts 281°
2026-04-26 15:49 50.44793 -5.01072 311 ft 7 kts 237°
2026-04-26 15:49 50.44777 -5.01102 311 ft 0 kts 227°
2026-04-26 15:52 50.44774 -5.01107 311 ft 2 kts 227°
2026-04-26 15:52 50.44761 -5.01128 310 ft 6 kts 224°
2026-04-26 15:53 50.44725 -5.01163 310 ft 6 kts 204°
2026-04-26 15:53 50.44640 -5.01032 313 ft 35 kts 119°
2026-04-26 15:53 50.44384 -5.00348 330 ft 106 kts 120°
2026-04-26 15:53 50.43912 -4.99090 380 ft 157 kts 119°
2026-04-26 15:54 50.43543 -4.98110 741 ft 156 kts 119°
2026-04-26 15:54 50.42992 -4.96649 1464 ft 154 kts 120°
2026-04-26 15:54 50.42422 -4.95156 1925 ft 166 kts 121°
2026-04-26 15:54 50.41789 -4.93548 2331 ft 179 kts 123°
2026-04-26 15:55 50.41050 -4.91807 2558 ft 204 kts 130°
2026-04-26 15:55 50.39885 -4.90440 3010 ft 221 kts 154°
2026-04-26 15:55 50.38421 -4.89396 3455 ft 242 kts 156°
2026-04-26 15:55 50.36837 -4.88264 4119 ft 252 kts 156°
2026-04-26 15:56 50.35224 -4.87104 4972 ft 259 kts 156°
2026-04-26 15:56 50.33558 -4.85906 5761 ft 265 kts 156°
2026-04-26 15:56 50.31889 -4.84699 6616 ft 268 kts 156°
2026-04-26 15:56 50.30181 -4.83461 7392 ft 272 kts 156°
2026-04-26 15:57 50.28445 -4.82209 8233 ft 274 kts 157°
2026-04-26 15:57 50.26724 -4.80971 9085 ft 276 kts 157°
2026-04-26 15:57 50.24967 -4.79705 9945 ft 278 kts 157°
2026-04-26 15:57 50.23802 -4.78866 10466 ft 280 kts 157°
2026-04-26 15:58 50.21312 -4.77086 10845 ft 309 kts 157°
2026-04-26 15:58 50.19285 -4.75641 11080 ft 329 kts 157°
2026-04-26 15:58 50.17200 -4.74149 11625 ft 337 kts 157°
2026-04-26 15:58 50.15049 -4.72602 12277 ft 343 kts 157°
2026-04-26 15:59 50.12865 -4.71031 12909 ft 348 kts 157°
2026-04-26 15:59 50.10637 -4.69437 13552 ft 354 kts 158°
2026-04-26 15:59 50.08381 -4.67831 14161 ft 359 kts 158°
2026-04-26 15:59 50.06093 -4.66209 14749 ft 363 kts 158°
2026-04-26 16:00 50.03785 -4.64572 15371 ft 365 kts 158°
2026-04-26 16:00 50.01489 -4.62941 15989 ft 367 kts 158°
2026-04-26 16:00 49.99153 -4.61278 16621 ft 370 kts 158°
2026-04-26 16:00 49.96809 -4.59611 17245 ft 372 kts 159°
2026-04-26 16:01 49.94447 -4.57933 17862 ft 374 kts 159°
2026-04-26 16:01 49.92069 -4.56245 18476 ft 376 kts 159°
2026-04-26 16:01 49.89699 -4.54564 18991 ft 379 kts 159°
2026-04-26 16:01 49.87279 -4.52851 19468 ft 382 kts 159°
2026-04-26 16:02 49.84851 -4.51137 20006 ft 385 kts 159°
2026-04-26 16:02 49.82399 -4.49407 20526 ft 387 kts 159°
2026-04-26 16:02 49.79940 -4.47674 21057 ft 390 kts 159°
2026-04-26 16:02 49.78299 -4.46520 21398 ft 391 kts 159°
2026-04-26 16:03 49.74969 -4.44183 22078 ft 394 kts 159°
2026-04-26 16:03 49.72457 -4.42426 22577 ft 397 kts 159°
2026-04-26 16:03 49.69963 -4.40679 23047 ft 399 kts 159°
2026-04-26 16:03 49.67412 -4.38893 23521 ft 402 kts 159°
2026-04-26 16:04 49.64861 -4.37099 23967 ft 404 kts 157°
2026-04-26 16:04 49.62447 -4.34801 24354 ft 411 kts 146°
2026-04-26 16:04 49.60382 -4.31758 24718 ft 419 kts 134°
2026-04-26 16:04 49.58726 -4.27989 25069 ft 428 kts 121°
2026-04-26 16:05 49.57620 -4.23684 25413 ft 436 kts 108°
2026-04-26 16:05 49.56926 -4.19097 25745 ft 440 kts 107°
2026-04-26 16:05 49.56246 -4.14540 26089 ft 442 kts 107°
2026-04-26 16:05 49.55543 -4.09912 26424 ft 444 kts 107°
2026-04-26 16:06 49.54829 -4.05254 26760 ft 446 kts 107°
2026-04-26 16:06 49.54110 -4.00586 27042 ft 449 kts 107°
2026-04-26 16:06 49.53394 -3.95952 27313 ft 452 kts 107°
2026-04-26 16:06 49.52666 -3.91233 27616 ft 454 kts 107°
2026-04-26 16:07 49.51932 -3.86487 27914 ft 456 kts 107°
2026-04-26 16:07 49.51193 -3.81726 28224 ft 458 kts 107°
2026-04-26 16:07 49.50449 -3.76942 28519 ft 460 kts 107°
2026-04-26 16:07 49.49699 -3.72146 28808 ft 462 kts 107°
2026-04-26 16:08 49.48943 -3.67329 29086 ft 464 kts 107°
2026-04-26 16:08 49.48183 -3.62505 29353 ft 465 kts 107°
2026-04-26 16:08 49.47412 -3.57642 29595 ft 467 kts 107°
2026-04-26 16:08 49.46640 -3.52782 29803 ft 470 kts 107°
2026-04-26 16:09 49.45860 -3.47871 30038 ft 472 kts 107°
2026-04-26 16:09 49.45090 -3.43013 30270 ft 474 kts 107°
2026-04-26 16:09 49.44307 -3.38082 30473 ft 475 kts 107°
2026-04-26 16:09 49.43518 -3.33133 30668 ft 476 kts 107°
2026-04-26 16:10 49.42727 -3.28182 30932 ft 475 kts 107°
2026-04-26 16:10 49.41946 -3.23314 31207 ft 474 kts 107°
2026-04-26 16:10 49.41152 -3.18394 31482 ft 474 kts 107°
2026-04-26 16:10 49.40354 -3.13487 31757 ft 473 kts 107°
2026-04-26 16:11 49.39563 -3.08638 32021 ft 472 kts 107°
2026-04-26 16:11 49.38764 -3.03745 32276 ft 472 kts 107°
2026-04-26 16:11 49.37962 -2.98855 32549 ft 471 kts 107°
2026-04-26 16:11 49.37161 -2.93972 32826 ft 470 kts 107°
2026-04-26 16:12 49.36362 -2.89096 33108 ft 469 kts 107°
2026-04-26 16:12 49.35572 -2.84289 33383 ft 469 kts 107°
2026-04-26 16:12 49.33972 -2.74611 33934 ft 467 kts 107°
2026-04-26 16:13 49.33167 -2.69770 34206 ft 466 kts 107°
2026-04-26 16:13 49.32364 -2.64955 34414 ft 466 kts 107°
2026-04-26 16:13 49.31554 -2.60125 34573 ft 468 kts 107°
2026-04-26 16:13 49.30749 -2.55348 34753 ft 468 kts 107°
2026-04-26 16:14 49.29932 -2.50500 34958 ft 469 kts 107°
2026-04-26 16:14 49.29117 -2.45651 35159 ft 468 kts 107°
2026-04-26 16:14 49.27495 -2.36020 35551 ft 468 kts 107°
2026-04-26 16:15 49.26676 -2.31188 35749 ft 467 kts 107°
2026-04-26 16:15 49.25857 -2.26362 35938 ft 467 kts 107°
2026-04-26 16:15 49.25033 -2.21537 36116 ft 467 kts 107°
2026-04-26 16:16 49.23383 -2.11958 36435 ft 468 kts 107°
2026-04-26 16:16 49.22547 -2.07140 36591 ft 468 kts 107°
2026-04-26 16:16 49.21716 -2.02306 36762 ft 468 kts 106°
2026-04-26 16:16 49.20946 -1.97538 36922 ft 467 kts 105°
2026-04-26 16:17 49.20208 -1.92689 37096 ft 467 kts 104°
2026-04-26 16:17 49.19490 -1.87821 37206 ft 468 kts 104°
2026-04-26 16:17 49.18051 -1.78114 37220 ft 468 kts 104°
2026-04-26 16:18 49.15816 -1.63664 37225 ft 467 kts 104°
2026-04-26 16:19 49.13518 -1.49174 37223 ft 467 kts 104°
2026-04-26 16:20 49.11243 -1.34769 37227 ft 467 kts 104°
2026-04-26 16:20 49.08943 -1.20292 37222 ft 467 kts 104°
2026-04-26 16:21 49.07393 -1.10639 37219 ft 468 kts 104°
2026-04-26 16:21 49.05834 -1.01051 37228 ft 468 kts 105°
2026-04-26 16:22 49.04260 -0.91418 37234 ft 468 kts 105°
2026-04-26 16:22 49.02686 -0.81769 37242 ft 468 kts 104°
2026-04-26 16:23 49.01114 -0.72188 37243 ft 469 kts 105°
2026-04-26 16:23 48.99510 -0.62538 37248 ft 469 kts 105°
2026-04-26 16:24 48.97908 -0.52960 37248 ft 469 kts 105°
2026-04-26 16:24 48.96302 -0.43326 37250 ft 469 kts 105°
2026-04-26 16:25 48.94695 -0.33741 37249 ft 469 kts 105°
2026-04-26 16:25 48.93065 -0.24095 37242 ft 469 kts 105°
2026-04-26 16:26 48.91714 -0.16162 37240 ft 469 kts 105°
2026-04-26 16:26 48.89785 -0.04929 37234 ft 469 kts 105°
2026-04-26 16:27 48.88141 0.04615 37246 ft 468 kts 105°
2026-04-26 16:27 48.86489 0.14192 37239 ft 467 kts 105°
2026-04-26 16:28 48.84837 0.23687 37235 ft 466 kts 105°
2026-04-26 16:28 48.83170 0.33224 37234 ft 466 kts 105°
2026-04-26 16:29 48.81503 0.42687 37228 ft 466 kts 105°
2026-04-26 16:29 48.79820 0.52213 37225 ft 467 kts 105°
2026-04-26 16:30 48.78135 0.61722 37220 ft 467 kts 105°
2026-04-26 16:30 48.76470 0.71252 37224 ft 467 kts 103°
2026-04-26 16:31 48.75188 0.80838 37224 ft 467 kts 100°
2026-04-26 16:31 48.74081 0.90563 37220 ft 467 kts 100°
2026-04-26 16:32 48.73110 0.98628 37216 ft 467 kts 101°
2026-04-26 16:32 48.71651 1.09869 37209 ft 467 kts 101°
2026-04-26 16:33 48.70369 1.19551 37213 ft 468 kts 101°
2026-04-26 16:33 48.69100 1.29157 37214 ft 468 kts 101°
2026-04-26 16:34 48.67822 1.38844 37210 ft 468 kts 101°
2026-04-26 16:34 48.66548 1.48457 37214 ft 468 kts 101°
2026-04-26 16:35 48.65251 1.58132 37209 ft 468 kts 101°
2026-04-26 16:35 48.63943 1.67814 37197 ft 469 kts 101°
2026-04-26 16:36 48.62639 1.77413 37208 ft 469 kts 101°
2026-04-26 16:36 48.61321 1.87094 37221 ft 469 kts 101°
2026-04-26 16:37 48.60001 1.96702 37232 ft 469 kts 101°
2026-04-26 16:37 48.58959 2.04738 37225 ft 467 kts 93°
2026-04-26 16:38 48.59104 2.11261 37228 ft 463 kts 82°
2026-04-26 16:38 48.59345 2.16117 37214 ft 464 kts 90°
2026-04-26 16:38 48.58754 2.25805 37221 ft 465 kts 94°
2026-04-26 16:39 48.58071 2.35526 37219 ft 466 kts 95°
2026-04-26 16:39 48.57376 2.45277 37216 ft 466 kts 95°
2026-04-26 16:40 48.56686 2.54965 37229 ft 466 kts 95°
2026-04-26 16:40 48.55986 2.64719 37234 ft 466 kts 95°
2026-04-26 16:41 48.55273 2.74420 37239 ft 466 kts 94°
2026-04-26 16:41 48.54773 2.84164 37223 ft 465 kts 91°
2026-04-26 16:42 48.54570 2.92270 37216 ft 465 kts 90°
2026-04-26 16:42 48.54339 3.02023 37219 ft 465 kts 90°
2026-04-26 16:43 48.54033 3.11779 37224 ft 464 kts 91°
2026-04-26 16:43 48.53677 3.21505 37222 ft 464 kts 91°
2026-04-26 16:44 48.53310 3.31177 37215 ft 464 kts 91°
2026-04-26 16:44 48.52942 3.40907 37217 ft 464 kts 91°
2026-04-26 16:45 48.52568 3.50663 37227 ft 464 kts 91°
2026-04-26 16:45 48.52195 3.60344 37223 ft 464 kts 91°
2026-04-26 16:46 48.51812 3.70084 37221 ft 464 kts 91°
2026-04-26 16:46 48.51416 3.79822 37215 ft 464 kts 91°
2026-04-26 16:47 48.51020 3.89548 37214 ft 464 kts 91°
2026-04-26 16:47 48.50466 3.99202 37208 ft 466 kts 99°
2026-04-26 16:48 48.48337 4.08443 37205 ft 469 kts 117°
2026-04-26 16:48 48.45313 4.17175 37201 ft 469 kts 116°
2026-04-26 16:49 48.42321 4.25831 37200 ft 469 kts 116°
2026-04-26 16:49 48.39303 4.34568 37206 ft 469 kts 116°
2026-04-26 16:50 48.36274 4.43279 37198 ft 469 kts 116°
2026-04-26 16:50 48.33242 4.51921 37196 ft 469 kts 116°
2026-04-26 16:51 48.30186 4.60613 37194 ft 469 kts 116°
2026-04-26 16:51 48.27158 4.69224 37194 ft 469 kts 116°
2026-04-26 16:52 48.24600 4.76488 37204 ft 469 kts 116°
2026-04-26 16:52 48.21043 4.86534 37192 ft 469 kts 116°
2026-04-26 16:53 48.17982 4.95134 37185 ft 469 kts 116°
2026-04-26 16:53 48.14906 5.03761 37185 ft 469 kts 116°
2026-04-26 16:54 48.11816 5.12386 37195 ft 469 kts 116°
2026-04-26 16:54 48.09388 5.21378 37179 ft 465 kts 103°
2026-04-26 16:55 48.07639 5.30625 37182 ft 465 kts 103°
2026-04-26 16:55 48.05864 5.39945 37181 ft 465 kts 103°
2026-04-26 16:56 48.03169 5.53900 37199 ft 465 kts 103°
2026-04-26 16:57 48.01372 5.63145 37193 ft 466 kts 103°
2026-04-26 16:57 47.98654 5.77049 37187 ft 466 kts 103°
2026-04-26 16:58 47.97143 5.84780 37185 ft 466 kts 103°
2026-04-26 16:59 47.94098 6.00232 37160 ft 466 kts 104°
2026-04-26 16:59 47.92230 6.09644 35139 ft 479 kts 103°
2026-04-26 17:00 47.90326 6.19191 33106 ft 485 kts 104°
2026-04-26 17:00 47.88387 6.28820 31504 ft 479 kts 104°
2026-04-26 17:00 47.87429 6.33562 30838 ft 475 kts 104°
2026-04-26 17:01 47.86482 6.38254 30208 ft 471 kts 104°
2026-04-26 17:01 47.85555 6.42857 29528 ft 467 kts 104°
2026-04-26 17:01 47.84620 6.47484 28786 ft 464 kts 105°
2026-04-26 17:01 47.83692 6.52057 28192 ft 458 kts 105°
2026-04-26 17:02 47.82768 6.56573 27584 ft 454 kts 105°
2026-04-26 17:02 47.81846 6.61069 26984 ft 449 kts 105°
2026-04-26 17:02 47.80948 6.65445 26395 ft 446 kts 105°
2026-04-26 17:02 47.80044 6.69851 25827 ft 442 kts 105°
2026-04-26 17:03 47.79147 6.74218 25259 ft 438 kts 105°
2026-04-26 17:03 47.78258 6.78538 24724 ft 435 kts 105°
2026-04-26 17:03 47.77386 6.82768 24200 ft 431 kts 105°
2026-04-26 17:03 47.76508 6.87030 23669 ft 428 kts 105°
2026-04-26 17:04 47.75636 6.91248 23126 ft 425 kts 105°
2026-04-26 17:04 47.74769 6.95425 22636 ft 420 kts 105°
2026-04-26 17:04 47.73917 6.99511 22150 ft 416 kts 105°
2026-04-26 17:04 47.73061 7.03612 21660 ft 413 kts 105°
2026-04-26 17:05 47.72209 7.07697 21153 ft 410 kts 106°
2026-04-26 17:05 47.71366 7.11728 20660 ft 407 kts 106°
2026-04-26 17:05 47.70537 7.15685 20179 ft 405 kts 106°
2026-04-26 17:05 47.69700 7.19674 19671 ft 403 kts 106°
2026-04-26 17:06 47.68864 7.23650 19163 ft 402 kts 107°
2026-04-26 17:06 47.68030 7.27604 18651 ft 401 kts 107°
2026-04-26 17:06 47.67204 7.31516 18104 ft 400 kts 107°
2026-04-26 17:06 47.66370 7.35453 17589 ft 397 kts 107°
2026-04-26 17:07 47.65540 7.39360 17092 ft 394 kts 107°
2026-04-26 17:07 47.64716 7.43226 16587 ft 391 kts 107°
2026-04-26 17:07 47.63899 7.47061 16092 ft 389 kts 107°
2026-04-26 17:07 47.63084 7.50871 15610 ft 386 kts 108°
2026-04-26 17:08 47.62243 7.54644 15112 ft 384 kts 108°
2026-04-26 17:08 47.61373 7.58377 14632 ft 382 kts 109°
2026-04-26 17:08 47.60491 7.62082 14150 ft 380 kts 110°
2026-04-26 17:08 47.59612 7.65752 13640 ft 377 kts 109°
2026-04-26 17:09 47.58755 7.69343 13215 ft 372 kts 109°
2026-04-26 17:09 47.58173 7.71793 12843 ft 371 kts 109°
2026-04-26 17:09 47.57050 7.76558 12173 ft 367 kts 109°
2026-04-26 17:09 47.56215 7.80114 11650 ft 364 kts 109°
2026-04-26 17:10 47.55391 7.83603 11183 ft 360 kts 109°
2026-04-26 17:10 47.54565 7.87100 10729 ft 356 kts 109°
2026-04-26 17:10 47.53758 7.90515 10565 ft 343 kts 109°
2026-04-26 17:10 47.52992 7.93747 10442 ft 330 kts 109°
2026-04-26 17:11 47.52239 7.96912 10248 ft 321 kts 110°
2026-04-26 17:11 47.51502 7.99996 9849 ft 318 kts 110°
2026-04-26 17:11 47.50751 8.03132 9116 ft 327 kts 109°
2026-04-26 17:11 47.50017 8.06337 8500 ft 329 kts 103°
2026-04-26 17:12 47.50628 8.12872 7158 ft 329 kts 57°
2026-04-26 17:12 47.52148 8.15384 6492 ft 329 kts 41°
2026-04-26 17:13 47.55548 8.19555 5305 ft 305 kts 49°
2026-04-26 17:13 47.56581 8.22213 4926 ft 296 kts 70°
2026-04-26 17:13 47.57759 8.27846 4213 ft 274 kts 73°
2026-04-26 17:14 47.58289 8.30474 3996 ft 258 kts 73°
2026-04-26 17:14 47.59127 8.35270 3994 ft 224 kts 88°
2026-04-26 17:14 47.58969 8.37475 3994 ft 208 kts 106°
2026-04-26 17:15 47.57489 8.40896 3891 ft 193 kts 134°
2026-04-26 17:15 47.56514 8.42231 3641 ft 189 kts 134°
2026-04-26 17:15 47.55558 8.43543 3394 ft 186 kts 134°
2026-04-26 17:16 47.54615 8.44845 3125 ft 183 kts 135°
2026-04-26 17:16 47.53698 8.46091 2901 ft 173 kts 136°
2026-04-26 17:16 47.52839 8.47265 2656 ft 161 kts 135°
2026-04-26 17:16 47.52060 8.48333 2489 ft 147 kts 134°
2026-04-26 17:17 47.51313 8.49361 2242 ft 146 kts 133°
2026-04-26 17:17 47.50567 8.50383 2097 ft 146 kts 133°
2026-04-26 17:17 47.49822 8.51403 1873 ft 145 kts 133°
2026-04-26 17:17 47.49074 8.52422 1673 ft 147 kts 134°
2026-04-26 17:18 47.48318 8.53453 1480 ft 148 kts 134°
2026-04-26 17:18 47.47594 8.54451 1403 ft 129 kts 136°
2026-04-26 17:18 47.47016 8.55238 1387 ft 98 kts 139°
2026-04-26 17:18 47.46639 8.55756 1400 ft 56 kts 140°
2026-04-26 17:19 47.46307 8.55980 1408 ft 10 kts 166°
2026-04-26 17:19 47.46253 8.55990 1411 ft 6 kts 190°
2026-04-26 17:19 47.46227 8.55934 1406 ft 10 kts 256°
2026-04-26 17:20 47.46233 8.55812 1402 ft 12 kts 276°
2026-04-26 17:20 47.46236 8.55769 1402 ft 12 kts 276°
2026-04-26 17:20 47.46251 8.55556 1401 ft 13 kts 276°
2026-04-26 17:20 47.46261 8.55424 1398 ft 13 kts 276°
2026-04-26 17:21 47.46270 8.55291 1394 ft 13 kts 276°
2026-04-26 17:21 47.46280 8.55155 1392 ft 13 kts 277°
2026-04-26 17:21 47.46290 8.55018 1388 ft 13 kts 267°
2026-04-26 17:21 47.46242 8.54942 1389 ft 10 kts 186°
2026-04-26 17:22 47.46181 8.54975 1389 ft 11 kts 154°
2026-04-26 17:22 47.46119 8.55023 1399 ft 8 kts 134°
2026-04-26 17:22 47.46127 8.55082 1397 ft 6 kts 62°
2026-04-26 17:22 47.46138 8.55117 1399 ft 1 kts 64°
2026-04-26 17:23 47.46139 8.55119 1399 ft 0 kts 64°